Hourly Data Report for July 11, 2021

FISHER BRANCH (AUT)
MANITOBA
Current Station Operator: ECCC - MSC

51°05'00.100" N
97°33'16.200" W
253.00 m
50309J6
71442
WSZ

Download Data

Hourly Data (July 2021)
Hourly Data Report for July 11, 2021
TIME
LST
Temp Definition
°C
Dew Point Definition
°C
Rel Hum Definition
%
Precip. Amount Definition
mm

Wind Dir Definition
10's deg

Wind Spd Definition
km/h
Visibility Definition
km
Stn Press Definition
kPa
Hmdx Definition


Wind Chill Definition


Weather Definition


00:00 17.6 13.6 77 0.0 19 3   98.55     LegendNANA
01:00 15.3 11.9 80 0.0 11 1   98.53     LegendNANA
02:00 15.5 12.4 82 0.0 15 4   98.50     LegendNANA
03:00 15.6 12.6 82 0.0 23 2   98.51     LegendNANA
04:00 14.2 11.5 84 0.0 16 3   98.48     LegendNANA
05:00 13.9 11.2 84 0.0 12 4   98.50     LegendNANA
06:00 20.0 15.0 73 0.0 18 8   98.47     LegendNANA
07:00 22.4 17.0 72 0.0 19 10   98.46 28   LegendNANA
08:00 24.9 17.7 64 0.0 22 5   98.44 31   LegendNANA
09:00 28.4 15.8 46 0.0 24 10   98.42 33   LegendNANA
10:00 29.6 16.5 45 0.0 24 9   98.41 35   LegendNANA
11:00 32.0 13.7 33 0.0 24 11   98.38 35   LegendNANA
12:00 32.8 11.5 27 0.0 26 18   98.36 35   LegendNANA
13:00 34.4 11.1 24 0.0 26 14   98.30 36   LegendNANA
14:00 34.1 11.3 25 0.0 26 13   98.27 36   LegendNANA
15:00 34.7 10.0 22 0.0 20 16   98.24 36   LegendNANA
16:00 34.0 9.4 22 0.0 24 21   98.21 35   LegendNANA
17:00 33.6 9.7 23 0.0 21 17   98.17 35   LegendNANA
18:00 32.9 9.8 24 0.0 23 18   98.12 34   LegendNANA
19:00 31.5 10.1 27 0.0 20 11   98.07 33   LegendNANA
20:00 28.2 12.3 37 0.0 19 8   98.05 31   LegendNANA
21:00 25.5 12.3 44 0.0 18 7   98.07 28   LegendNANA
22:00 24.4 12.3 47 0.0 18 10   98.07 27   LegendNANA
23:00 24.0 12.6 49 0.0 18 10   98.05 27   LegendNANA

Notes on Data Quality.

Legend

  • E = Estimated
  • M = Missing
  • NA = Not Available*
  • [empty] = Indicates an unobserved value
Date modified: